FW3849 Weather Reports


time (UTC)temp
C
wind
direction
speed
KPH
gust
KPH
rain 1hr
cm
rain 24hr
cm
rain mn
cm
humidity
%
barometer
mb
20260503185053 23 189 12.9 27.4 0.00 0.00 0.00 27 1019.6
20260503184557 23 196 17.7 27.4 0.00 0.00 0.00 27 1019.8
20260503184054 23 202 16.1 29.0 0.00 0.00 0.00 27 1019.8
20260503183550 23 187 17.7 29.0 0.00 0.00 0.00 27 1019.8
20260503183105 22 185 14.5 27.4 0.00 0.00 0.00 28 1019.9
20260503182547 22 164 14.5 25.7 0.00 0.00 0.00 28 1020.2
20260503182045 22 220 17.7 25.7 0.00 0.00 0.00 28 1020.4
20260503181545 22 219 14.5 27.4 0.00 0.00 0.00 28 1020.5
20260503181144 22 202 17.7 27.4 0.00 0.00 0.00 29 1020.6
20260503180546 22 187 20.9 30.6 0.00 0.00 0.00 29 1020.7
20260503180046 22 187 20.9 30.6 0.00 0.00 0.00 29 1020.7
20260503175541 22 208 19.3 29.0 0.00 0.00 0.00 29 1020.7
20260503175043 22 217 14.5 29.0 0.00 0.00 0.00 31 1020.8
20260503174540 22 191 17.7 29.0 0.00 0.00 0.00 31 1020.8
20260503174041 22 196 12.9 22.5 0.00 0.00 0.00 31 1020.9
20260503173539 22 180 14.5 32.2 0.00 0.00 0.00 30 1021.1
20260503173105 22 228 17.7 32.2 0.00 0.00 0.00 31 1021.0
20260503172536 21 177 20.9 29.0 0.00 0.00 0.00 31 1021.1
20260503172036 21 245 19.3 27.4 0.00 0.00 0.00 31 1021.2
20260503171535 21 229 16.1 27.4 0.00 0.00 0.00 33 1021.5
20260503171035 21 194 17.7 27.4 0.00 0.00 0.00 31 1021.4
20260503170535 21 191 14.5 29.0 0.00 0.00 0.00 34 1021.5
20260503160128 20 198 14.5 22.5 0.00 0.00 0.00 37 1022.5
20260503150518 17 187 14.5 24.1 0.00 0.00 0.00 45 1022.9
20260503150116 17 212 12.9 24.1 0.00 0.00 0.00 46 1023.0
20260503131057 13 159 3.2 6.4 0.00 0.00 0.00 59 1022.8
20260503130556 13 188 1.6 6.4 0.00 0.00 0.00 59 1022.8
20260503120103 12 175 1.6 4.8 0.00 0.00 0.00 60 1021.9
20260503110546 12 192 0.0 3.2 0.00 0.00 0.00 58 1021.5
20260503081537 13 192 0.0 0.0 0.00 0.00 0.00 56 1021.8
20260503081037 13 192 0.0 0.0 0.00 0.00 0.00 56 1021.9
20260503080540 13 192 0.0 0.0 0.00 0.00 0.00 57 1021.8
20260503072536 14 192 0.0 1.6 0.00 0.00 0.00 53 1022.1
20260503072037 14 192 0.0 3.2 0.00 0.00 0.00 53 1022.0
20260503071539 15 193 1.6 4.8 0.00 0.00 0.00 53 1022.0
20260503071035 15 193 0.0 3.2 0.00 0.00 0.00 52 1022.0
20260503070535 15 192 0.0 3.2 0.00 0.00 0.00 51 1022.1
20260503055034 15 193 3.2 4.8 0.00 0.00 0.00 49 1022.1
20260503054538 15 193 1.6 3.2 0.00 0.00 0.00 49 1022.4
20260503054035 15 193 0.0 9.7 0.00 0.00 0.00 49 1022.3
20260503053537 16 195 3.2 9.7 0.00 0.00 0.00 48 1022.4
20260503053038 16 185 1.6 6.4 0.00 0.00 0.00 48 1022.2
20260503052534 16 187 1.6 6.4 0.00 0.00 0.00 47 1022.4
20260503052033 16 181 1.6 9.7 0.00 0.00 0.00 46 1022.3
20260503051534 16 189 4.8 9.7 0.00 0.00 0.00 46 1022.4
20260503051033 16 188 3.2 8.0 0.00 0.00 0.00 45 1022.4
20260503050535 17 203 3.2 6.4 0.00 0.00 0.00 45 1022.5
20260503050033 17 216 1.6 6.4 0.00 0.00 0.00 43 1022.6
20260503045036 17 200 3.2 14.5 0.00 0.00 0.00 42 1022.5
20260503044533 17 206 4.8 14.5 0.00 0.00 0.00 42 1022.5
20260503044032 17 188 4.8 11.3 0.00 0.00 0.00 42 1022.4
20260503043532 17 212 4.8 11.3 0.00 0.00 0.00 43 1022.3
20260503043035 17 208 3.2 11.3 0.00 0.00 0.00 43 1022.3
20260503042532 17 218 3.2 11.3 0.00 0.00 0.00 43 1022.4
20260503042032 17 220 3.2 9.7 0.00 0.00 0.00 43 1022.2
20260503041532 17 216 3.2 9.7 0.00 0.00 0.00 43 1022.2
20260503041031 17 210 3.2 8.0 0.00 0.00 0.00 44 1022.4
20260503040531 17 217 3.2 6.4 0.00 0.00 0.00 44 1022.3
20260503040039 17 231 3.2 9.7 0.00 0.00 0.00 44 1022.3
20260503035034 17 238 3.2 9.7 0.00 0.00 0.00 44 1022.2
20260503034545 17 235 4.8 9.7 0.00 0.00 0.00 43 1022.1
20260503034034 17 220 3.2 6.4 0.00 0.00 0.00 44 1022.0
20260503033533 17 183 1.6 3.2 0.00 0.00 0.00 44 1022.1
20260503033040 17 181 0.0 3.2 0.00 0.00 0.00 43 1022.1
20260503032533 17 181 0.0 3.2 0.00 0.00 0.00 43 1022.2
20260503032034 17 180 0.0 3.2 0.00 0.00 0.00 43 1022.2
20260503031540 18 180 0.0 3.2 0.00 0.00 0.00 42 1022.2
20260503031033 18 181 1.6 4.8 0.00 0.00 0.00 42 1022.2
20260503030532 18 180 1.6 4.8 0.00 0.00 0.00 41 1022.2
20260503030045 18 145 1.6 4.8 0.00 0.00 0.00 40 1022.1
20260503025033 18 158 1.6 4.8 0.00 0.00 0.00 39 1021.8
20260503024530 18 171 1.6 4.8 0.00 0.00 0.00 39 1021.7
20260503024031 18 160 1.6 6.4 0.00 0.00 0.00 39 1021.4
20260503023531 18 160 1.6 8.0 0.00 0.00 0.00 39 1021.2
20260503023031 18 153 1.6 8.0 0.00 0.00 0.00 38 1021.3
20260503022530 19 153 1.6 6.4 0.00 0.00 0.00 38 1021.3
20260503022030 19 141 1.6 9.7 0.00 0.00 0.00 37 1021.2
20260503021539 19 147 0.0 8.0 0.00 0.00 0.00 37 1021.2
20260503021030 19 174 3.2 8.0 0.00 0.00 0.00 36 1021.2
20260503020530 20 105 4.8 9.7 0.00 0.00 0.00 36 1021.3
20260503020029 20 112 4.8 9.7 0.00 0.00 0.00 34 1021.1
20260503015028 20 81 3.2 9.7 0.00 0.00 0.00 34 1020.9
20260503014528 20 148 3.2 9.7 0.00 0.00 0.00 34 1021.0
20260503014028 20 122 3.2 9.7 0.00 0.00 0.00 34 1021.0
20260503013528 20 90 3.2 12.9 0.00 0.00 0.00 33 1020.9
20260503013028 20 105 4.8 12.9 0.00 0.00 0.00 32 1021.0
20260503012528 21 131 3.2 12.9 0.00 0.00 0.00 32 1021.0
20260503012028 21 117 4.8 16.1 0.00 0.00 0.00 31 1020.9
20260503011529 21 71 4.8 16.1 0.00 0.00 0.00 31 1020.9
20260503011027 21 86 6.4 16.1 0.00 0.00 0.00 30 1020.9
20260503010527 21 52 3.2 14.5 0.00 0.00 0.00 29 1020.9
20260503010027 21 68 4.8 16.1 0.00 0.00 0.00 28 1020.7
20260503005027 21 54 6.4 16.1 0.00 0.00 0.00 27 1020.7
20260503004527 21 67 4.8 17.7 0.00 0.00 0.00 28 1020.6
20260503004029 21 95 6.4 11.3 0.00 0.00 0.00 28 1020.7
20260503003527 21 75 4.8 9.7 0.00 0.00 0.00 27 1020.7
20260503003026 21 52 3.2 11.3 0.00 0.00 0.00 27 1020.7
20260503002526 21 106 3.2 9.7 0.00 0.00 0.00 26 1020.7
20260503002027 22 165 3.2 9.7 0.00 0.00 0.00 26 1020.7
20260503001526 22 102 4.8 11.3 0.00 0.00 0.00 26 1020.6
20260503001025 22 165 6.4 14.5 0.00 0.00 0.00 26 1020.7
20260503000524 22 142 1.6 9.7 0.00 0.00 0.00 25 1020.7
20260503000032 22 69 1.6 9.7 0.00 0.00 0.00 25 1020.6
20260502235023 22 139 3.2 8.0 0.00 0.00 0.00 26 1020.6
20260502234524 22 84 3.2 16.1 0.00 0.00 0.00 27 1020.5
20260502234023 22 122 6.4 16.1 0.00 0.00 0.00 26 1020.5
20260502233523 22 75 6.4 12.9 0.00 0.00 0.00 27 1020.5
20260502233022 22 110 4.8 12.9 0.00 0.00 0.00 27 1020.6
20260502232520 22 132 4.8 14.5 0.00 0.00 0.00 27 1020.6
20260502232021 22 79 4.8 14.5 0.00 0.00 0.00 27 1020.7
20260502231523 22 127 4.8 9.7 0.00 0.00 0.00 27 1020.7
20260502231023 22 122 4.8 12.9 0.00 0.00 0.00 26 1020.7
20260502230521 22 152 6.4 17.7 0.00 0.00 0.00 26 1020.8
20260502230020 22 88 9.7 17.7 0.00 0.00 0.00 25 1020.7
20260502225022 22 52 9.7 19.3 0.00 0.00 0.00 25 1020.8
20260502224523 22 107 14.5 19.3 0.00 0.00 0.00 25 1020.9
20260502224022 22 83 9.7 19.3 0.00 0.00 0.00 26 1021.0
20260502223522 22 189 3.2 9.7 0.00 0.00 0.00 25 1021.0
20260502223020 22 186 3.2 8.0 0.00 0.00 0.00 25 1021.1
20260502222520 22 220 4.8 9.7 0.00 0.00 0.00 25 1021.2
20260502222018 22 127 1.6 9.7 0.00 0.00 0.00 25 1021.2
20260502221518 21 58 3.2 9.7 0.00 0.00 0.00 26 1021.3
20260502221018 21 237 3.2 9.7 0.00 0.00 0.00 27 1021.4
20260502220518 21 135 3.2 12.9 0.00 0.00 0.00 27 1021.4
20260502220017 22 142 6.4 16.1 0.00 0.00 0.00 26 1021.5
20260502215017 22 77 4.8 14.5 0.00 0.00 0.00 26 1021.6
20260502214527 22 210 6.4 14.5 0.00 0.00 0.00 26 1021.6
20260502214017 21 266 6.4 14.5 0.00 0.00 0.00 26 1021.7
20260502213516 21 163 6.4 14.5 0.00 0.00 0.00 26 1021.8
20260502213016 22 117 8.0 14.5 0.00 0.00 0.00 26 1021.9
20260502212515 21 75 4.8 14.5 0.00 0.00 0.00 27 1021.9
20260502212020 21 113 8.0 19.3 0.00 0.00 0.00 27 1021.9
20260502211527 22 110 8.0 19.3 0.00 0.00 0.00 27 1022.2
20260502211014 22 161 6.4 16.1 0.00 0.00 0.00 26 1022.1
20260502210514 22 215 3.2 9.7 0.00 0.00 0.00 26 1022.2
20260502210013 21 54 3.2 8.0 0.00 0.00 0.00 29 1022.2
20260502205012 21 221 4.8 9.7 0.00 0.00 0.00 29 1022.4
20260502204512 21 179 3.2 17.7 0.00 0.00 0.00 28 1022.5
20260502204012 21 149 6.4 17.7 0.00 0.00 0.00 27 1022.4
20260502203511 21 133 4.8 11.3 0.00 0.00 0.00 28 1022.6
20260502203011 21 277 1.6 14.5 0.00 0.00 0.00 29 1022.7
20260502202509 20 171 3.2 14.5 0.00 0.00 0.00 29 1022.7
20260502202009 21 182 9.7 14.5 0.00 0.00 0.00 29 1022.7
20260502201509 21 60 4.8 22.5 0.00 0.00 0.00 29 1022.7
20260502201009 21 58 12.9 22.5 0.00 0.00 0.00 28 1022.9
20260502200507 21 204 6.4 17.7 0.00 0.00 0.00 29 1022.9
20260502200007 21 135 6.4 16.1 0.00 0.00 0.00 29 1023.0
20260502195004 21 102 4.8 12.9 0.00 0.00 0.00 30 1023.2
20260502194504 20 261 1.6 12.9 0.00 0.00 0.00 28 1023.3
20260502194005 21 62 3.2 12.9 0.00 0.00 0.00 28 1023.3
20260502193503 21 80 4.8 12.9 0.00 0.00 0.00 28 1023.3
20260502193003 21 158 6.4 12.9 0.00 0.00 0.00 29 1023.4
20260502192503 21 205 4.8 12.9 0.00 0.00 0.00 28 1023.5
20260502192002 21 103 4.8 17.7 0.00 0.00 0.00 28 1023.5
20260502191503 21 56 6.4 17.7 0.00 0.00 0.00 29 1023.7
20260502191002 21 134 4.8 19.3 0.00 0.00 0.00 29 1023.7
20260502190501 21 73 11.3 19.3 0.00 0.00 0.00 29 1023.7
20260502190108 21 56 3.2 12.9 0.00 0.00 0.00 28 1023.8